User: anonymous   Login
Location: Bothwell
(42.3833°S, 147.0000°E)
Time: 05:28:01
(UTC+10:00)
Language:

UNISAT 6 - Orbit

View from above orbital plane
View from above orbital plane
View from above satellite
View from above satellite

Ground track
Ground track

The orbit data is extracted from the following two-line orbital elements,

1 40012U 14033C   22267.49490810  .00001568  00000-0  23369-3 0  9998
2 40012  97.6636  90.1929 0056745 196.9719 162.9594 14.75116154444581
Epoch (UTC): 24 September 2022 11:52:40
Eccentricity: 0.0056745
inclination: 97.6636°
perigee height: 605 km
apogee height: 684 km
right ascension of ascending node: 90.1929°
argument of perigee: 196.9719°
revolutions per day: 14.75116154
mean anomaly at epoch: 162.9594°
orbit number at epoch: 44458

The dashed part of the orbit path shows where the satellite is in the earth's shadow,  

DLR